TimePDT,TemperatureF,Dew PointF,Humidity,Sea Level PressureIn,VisibilityMPH,Wind Direction,Wind SpeedMPH,Gust SpeedMPH,PrecipitationIn,Events,Conditions,WindDirDegrees,DateUTC
12:56 AM,55.9,41.0,57,30.01,10.0,Calm,Calm,-,N/A,,Clear,0,2013-08-15 07:56:00
1:56 AM,53.1,41.0,64,30.01,10.0,Calm,Calm,-,N/A,,Clear,0,2013-08-15 08:56:00
2:56 AM,54.0,39.9,59,30.01,10.0,Calm,Calm,-,N/A,,Clear,0,2013-08-15 09:56:00
3:56 AM,51.1,39.9,66,30.01,10.0,Calm,Calm,-,N/A,,Clear,0,2013-08-15 10:56:00
4:56 AM,50.0,39.0,66,30.01,10.0,Calm,Calm,-,N/A,,Clear,0,2013-08-15 11:56:00
5:56 AM,46.9,39.9,77,30.03,10.0,Calm,Calm,-,N/A,,Clear,0,2013-08-15 12:56:00
6:56 AM,48.0,41.0,77,30.04,10.0,Calm,Calm,-,N/A,,Clear,0,2013-08-15 13:56:00
7:56 AM,57.9,45.0,62,30.03,10.0,Calm,Calm,-,N/A,,Clear,0,2013-08-15 14:56:00
8:56 AM,66.9,48.0,51,30.02,10.0,Calm,Calm,-,N/A,,Clear,0,2013-08-15 15:56:00
9:56 AM,75.9,46.9,36,30.01,10.0,Variable,3.5,-,N/A,,Clear,0,2013-08-15 16:56:00
10:56 AM,81.0,46.9,30,30.01,10.0,Variable,3.5,-,N/A,,Clear,0,2013-08-15 17:56:00
11:56 AM,82.9,46.9,28,30.00,10.0,Variable,4.6,-,N/A,,Clear,0,2013-08-15 18:56:00
12:56 PM,86.0,46.0,25,30.00,10.0,SE,4.6,-,N/A,,Clear,130,2013-08-15 19:56:00
1:56 PM,87.1,43.0,21,29.99,10.0,Calm,Calm,-,N/A,,Clear,0,2013-08-15 20:56:00
2:56 PM,87.1,41.0,20,29.99,10.0,Calm,Calm,-,N/A,,Clear,0,2013-08-15 21:56:00
3:56 PM,88.0,44.1,22,29.98,10.0,Variable,5.8,-,N/A,,Clear,0,2013-08-15 22:56:00
4:56 PM,84.0,43.0,24,29.99,10.0,Variable,5.8,-,N/A,,Clear,0,2013-08-15 23:56:00
5:56 PM,82.0,44.1,26,29.99,10.0,Calm,Calm,-,N/A,,Clear,0,2013-08-16 00:56:00
6:56 PM,80.1,43.0,27,29.99,10.0,Variable,3.5,-,N/A,,Clear,0,2013-08-16 01:56:00
7:56 PM,75.0,42.1,31,29.99,10.0,Calm,Calm,-,N/A,,Clear,0,2013-08-16 02:56:00
8:56 PM,73.9,39.9,29,30.00,10.0,East,3.5,-,N/A,,Clear,80,2013-08-16 03:56:00
9:56 PM,64.9,43.0,45,30.01,10.0,Calm,Calm,-,N/A,,Clear,0,2013-08-16 04:56:00
10:56 PM,63.0,43.0,48,30.01,10.0,Calm,Calm,-,N/A,,Clear,0,2013-08-16 05:56:00
11:56 PM,57.9,43.0,58,30.02,10.0,Calm,Calm,-,N/A,,Clear,0,2013-08-16 06:56:00